Weather in Cabo Rojo

Puerto Rico     18°03′09″N   67°09′10″W
В апреле 2022 года жителям России запретили посещать сайт meteo.paraplan.net по решению Генеральной прокуратуры. Аудитория сайта уменьшилась в 10 раз. Владельцы сайта не видят смысла в поддержке погодного сервера в таких условиях. Сайт будет закрыт в октябре.
temp.,
°C
wind,
m/s
gust,
m/s
humid.,
%
clouds,
%
prec.,
mm/h
press.,
hPa
HPBL,
m
4 october, tue
tue423:00+27ene3378100 0.0 1013284
02:00+27ese2378100 0.0 1012365
05:00+27ese4481100 0.0 1012317
08:00+27e458013 0.0 1013380
11:00+29ese347067 0.0 1014817
14:00+29ese347140 0.1 1012786
17:00+29e457376 0.9 1011803
20:00+28nne337798 2.6 1012263
5 october, wed
wed523:00+27ese578181 1.0 1013446
02:00+27ese788261 3.6 1011555
05:00+27e568391 0.6 1011443
08:00+27e57816 0.9 1012451
11:00+29se677376 0.1 1013930
14:00+29se67736 1.6 1011716
17:00+28ese6777100 4.8 1011558
20:00+28e5676100 7.2 1013475
6 october, thu
thu623:00+28ese687996 0.1 1013651
02:00+27e578177 0.6 1012507
05:00+27e45805 0.0 1012329
08:00+27ene34745 0.0 1013296
11:00+29e24645 0.0 1014556
14:00+29s026827 0.3 1012557
17:00+29e026811 1.1 1012710
20:00+28ne227115 1.8 1013372
7 october, fri
fri723:00+28nne11745 0.0 1014342
02:00+27ese117626 0.0 1012356
05:00+26ene117799 0.0 1012236
08:00+27ne107577 0.0 1014296
11:00+28ese136599 0.0 1013542
14:00+29se44658 0.0 1011782
17:00+28e457431 2.1 1011556
20:00+28ese237488 2.9 1013410
8 october, sat
sat823:00+27ene3478100 0.1 1013400
02:00+27ne1178100 0.1 1011258
05:00+26ene227910 0.0 1011209
08:00+26e22755 0.0 1012221
11:00+28sse126797 0.0 1012407
14:00+29se567296 0.1 1010798
17:00+28e677225 4.4 1010940
20:00+27ese467637 7.1 1012515